| time (UTC) | temp F | wind direction | speed knots | gust knots | rain 1hr in | rain 24hr in | rain mn in | humidity % | barometer mb |
| 20260506051204 | 46 | 21 | 2.6 | 10.4 | 0.00 | 0.00 | 0.00 | 84 | 1012.8 |
| 20260506050704 | 46 | 324 | 1.7 | 4.3 | 0.00 | 0.00 | 0.00 | 84 | 1012.8 |
| 20260506050203 | 46 | 29 | 1.7 | 7.0 | 0.00 | 0.00 | 0.00 | 84 | 1012.8 |
| 20260506044704 | 46 | 0 | 3.5 | 7.0 | 0.00 | 0.00 | 0.00 | 83 | 1012.8 |
| 20260506044204 | 46 | 2 | 2.6 | 10.4 | 0.00 | 0.00 | 0.00 | 83 | 1012.7 |
| 20260506043703 | 46 | 42 | 2.6 | 7.8 | 0.00 | 0.00 | 0.00 | 83 | 1012.7 |
| 20260506041703 | 47 | 21 | 1.7 | 5.2 | 0.00 | 0.00 | 0.00 | 83 | 1012.8 |
| 20260506040705 | 47 | 352 | 3.5 | 8.7 | 0.00 | 0.00 | 0.00 | 83 | 1012.8 |
| 20260506034705 | 47 | 318 | 0.9 | 2.6 | 0.00 | 0.00 | 0.00 | 84 | 1012.7 |
| 20260506034204 | 47 | 41 | 2.6 | 8.7 | 0.00 | 0.00 | 0.00 | 84 | 1012.8 |
| 20260506033704 | 47 | 52 | 2.6 | 7.8 | 0.00 | 0.00 | 0.00 | 84 | 1012.7 |
| 20260506033204 | 48 | 22 | 2.6 | 7.8 | 0.00 | 0.00 | 0.00 | 84 | 1012.6 |
| 20260506031705 | 48 | 46 | 0.9 | 2.6 | 0.00 | 0.00 | 0.00 | 84 | 1012.8 |
| 20260506031203 | 48 | 344 | 1.7 | 10.4 | 0.00 | 0.00 | 0.00 | 84 | 1012.8 |
| 20260506030204 | 48 | 311 | 1.7 | 5.2 | 0.00 | 0.00 | 0.00 | 84 | 1012.8 |
| 20260506024704 | 48 | 25 | 1.7 | 5.2 | 0.00 | 0.00 | 0.00 | 84 | 1012.7 |
| 20260506024204 | 48 | 342 | 1.7 | 5.2 | 0.00 | 0.00 | 0.00 | 84 | 1012.8 |
| 20260506023704 | 49 | 8 | 0.9 | 6.1 | 0.00 | 0.00 | 0.00 | 84 | 1012.7 |
| 20260506023204 | 49 | 20 | 3.5 | 8.7 | 0.00 | 0.00 | 0.00 | 84 | 1012.7 |
| 20260506021703 | 49 | 17 | 2.6 | 7.8 | 0.00 | 0.00 | 0.00 | 84 | 1012.7 |
| 20260506021204 | 49 | 45 | 4.3 | 12.2 | 0.00 | 0.00 | 0.00 | 84 | 1012.7 |
| 20260506020703 | 49 | 34 | 1.7 | 6.1 | 0.00 | 0.00 | 0.00 | 84 | 1012.8 |
| 20260506020204 | 49 | 316 | 1.7 | 8.7 | 0.00 | 0.00 | 0.00 | 84 | 1012.7 |
| 20260506014704 | 49 | 26 | 2.6 | 7.8 | 0.00 | 0.00 | 0.00 | 84 | 1012.8 |
| 20260506014204 | 49 | 17 | 0.0 | 4.3 | 0.00 | 0.00 | 0.00 | 84 | 1012.8 |
| 20260506013703 | 49 | 27 | 0.9 | 2.6 | 0.00 | 0.00 | 0.00 | 84 | 1012.9 |
| 20260506013204 | 49 | 15 | 0.9 | 7.8 | 0.00 | 0.00 | 0.00 | 84 | 1012.9 |
| 20260506011705 | 50 | 51 | 2.6 | 6.1 | 0.00 | 0.00 | 0.00 | 83 | 1012.8 |
| 20260506011204 | 50 | 60 | 1.7 | 8.7 | 0.00 | 0.00 | 0.00 | 83 | 1012.8 |
| 20260506010703 | 50 | 53 | 3.5 | 10.4 | 0.00 | 0.00 | 0.00 | 83 | 1012.9 |
| 20260506010203 | 50 | 46 | 1.7 | 8.7 | 0.00 | 0.00 | 0.00 | 83 | 1013.0 |
| 20260506004704 | 50 | 63 | 2.6 | 7.0 | 0.00 | 0.00 | 0.00 | 82 | 1013.0 |
| 20260506004204 | 50 | 353 | 2.6 | 8.7 | 0.00 | 0.00 | 0.00 | 81 | 1012.9 |
| 20260506003704 | 50 | 56 | 3.5 | 7.8 | 0.00 | 0.00 | 0.00 | 81 | 1012.9 |
| 20260506003203 | 51 | 37 | 1.7 | 8.7 | 0.00 | 0.00 | 0.00 | 81 | 1012.9 |
| 20260506001703 | 51 | 29 | 1.7 | 8.7 | 0.00 | 0.00 | 0.00 | 79 | 1013.0 |
| 20260506001203 | 51 | 16 | 0.9 | 5.2 | 0.00 | 0.00 | 0.00 | 79 | 1013.0 |
| 20260506000703 | 51 | 24 | 4.3 | 8.7 | 0.00 | 0.00 | 0.00 | 78 | 1012.9 |
| 20260506000205 | 51 | 59 | 5.2 | 11.3 | 0.00 | 0.00 | 0.00 | 78 | 1012.9 |
| 20260505234704 | 51 | 353 | 5.2 | 12.2 | 0.00 | 0.00 | 0.00 | 78 | 1012.9 |
| 20260505234203 | 51 | 49 | 2.6 | 12.2 | 0.00 | 0.00 | 0.00 | 79 | 1012.9 |
| 20260505233704 | 51 | 5 | 2.6 | 7.0 | 0.00 | 0.00 | 0.00 | 79 | 1012.8 |
| 20260505231705 | 52 | 42 | 3.5 | 11.3 | 0.00 | 0.00 | 0.00 | 79 | 1012.7 |
| 20260505231204 | 52 | 54 | 5.2 | 8.7 | 0.00 | 0.00 | 0.00 | 79 | 1012.7 |
| 20260505230703 | 53 | 58 | 4.3 | 8.7 | 0.00 | 0.00 | 0.00 | 78 | 1012.7 |
| 20260505224704 | 53 | 356 | 2.6 | 11.3 | 0.00 | 0.00 | 0.00 | 77 | 1012.7 |
| 20260505221704 | 54 | 22 | 2.6 | 10.4 | 0.00 | 0.00 | 0.00 | 76 | 1012.5 |
| 20260505221204 | 54 | 36 | 2.6 | 10.4 | 0.00 | 0.00 | 0.00 | 76 | 1012.5 |
| 20260505220703 | 54 | 13 | 2.6 | 8.7 | 0.00 | 0.00 | 0.00 | 76 | 1012.4 |
| 20260505214204 | 54 | 47 | 4.3 | 11.3 | 0.00 | 0.00 | 0.00 | 77 | 1012.4 |
| 20260505213704 | 54 | 51 | 2.6 | 10.4 | 0.00 | 0.00 | 0.00 | 77 | 1012.3 |
| 20260505213204 | 54 | 19 | 2.6 | 8.7 | 0.00 | 0.00 | 0.00 | 77 | 1012.4 |
| 20260505211704 | 54 | 55 | 2.6 | 12.2 | 0.00 | 0.00 | 0.00 | 77 | 1012.3 |
| 20260505210704 | 55 | 30 | 4.3 | 11.3 | 0.00 | 0.00 | 0.00 | 74 | 1012.3 |
| 20260505210204 | 55 | 9 | 2.6 | 12.2 | 0.00 | 0.00 | 0.00 | 74 | 1012.3 |
| 20260505204704 | 55 | 49 | 4.3 | 8.7 | 0.00 | 0.00 | 0.00 | 74 | 1012.2 |
| 20260505204203 | 55 | 35 | 1.7 | 8.7 | 0.00 | 0.00 | 0.00 | 74 | 1012.3 |
| 20260505203704 | 55 | 54 | 4.3 | 8.7 | 0.00 | 0.00 | 0.00 | 74 | 1012.2 |
| 20260505201703 | 56 | 34 | 4.3 | 11.3 | 0.00 | 0.00 | 0.00 | 74 | 1012.1 |
| 20260505201204 | 56 | 8 | 1.7 | 11.3 | 0.00 | 0.00 | 0.00 | 74 | 1012.1 |
| 20260505200703 | 56 | 13 | 2.6 | 7.8 | 0.00 | 0.00 | 0.00 | 74 | 1012.1 |
| 20260505193703 | 57 | 359 | 1.7 | 4.3 | 0.00 | 0.00 | 0.00 | 73 | 1011.8 |
| 20260505193203 | 57 | 312 | 0.9 | 4.3 | 0.00 | 0.00 | 0.00 | 73 | 1011.7 |
| 20260505191704 | 57 | 313 | 0.9 | 2.6 | 0.00 | 0.00 | 0.00 | 73 | 1011.6 |
| 20260505191204 | 57 | 305 | 1.7 | 5.2 | 0.00 | 0.00 | 0.00 | 72 | 1011.6 |
| 20260505190703 | 57 | 308 | 2.6 | 5.2 | 0.00 | 0.00 | 0.00 | 72 | 1011.5 |
| 20260505190204 | 57 | 17 | 2.6 | 8.7 | 0.00 | 0.00 | 0.00 | 72 | 1011.4 |
| 20260505184203 | 58 | 343 | 1.7 | 6.1 | 0.00 | 0.00 | 0.00 | 72 | 1011.3 |
| 20260505183704 | 58 | 17 | 2.6 | 7.8 | 0.00 | 0.00 | 0.00 | 71 | 1011.3 |
| 20260505183204 | 58 | 328 | 0.9 | 7.8 | 0.00 | 0.00 | 0.00 | 71 | 1011.3 |
| 20260505181705 | 58 | 306 | 3.5 | 7.8 | 0.00 | 0.00 | 0.00 | 70 | 1011.2 |
| 20260505181203 | 58 | 347 | 2.6 | 5.2 | 0.00 | 0.00 | 0.00 | 70 | 1011.3 |
| 20260505180703 | 58 | 337 | 2.6 | 7.0 | 0.00 | 0.00 | 0.00 | 70 | 1011.4 |
| 20260505180203 | 59 | 299 | 1.7 | 8.7 | 0.00 | 0.00 | 0.00 | 70 | 1011.3 |
| 20260505173704 | 58 | 348 | 2.6 | 6.1 | 0.00 | 0.00 | 0.00 | 71 | 1011.4 |
| 20260505173204 | 58 | 310 | 2.6 | 8.7 | 0.00 | 0.00 | 0.00 | 71 | 1011.4 |
| 20260505171704 | 58 | 327 | 1.7 | 4.3 | 0.00 | 0.00 | 0.00 | 72 | 1011.3 |
| 20260505170703 | 58 | 285 | 1.7 | 4.3 | 0.00 | 0.00 | 0.00 | 73 | 1011.3 |
| 20260505164703 | 58 | 299 | 0.9 | 4.3 | 0.00 | 0.00 | 0.00 | 73 | 1011.4 |
| 20260505164204 | 58 | 299 | 1.7 | 4.3 | 0.00 | 0.00 | 0.00 | 73 | 1011.4 |
| 20260505163704 | 58 | 355 | 0.9 | 4.3 | 0.00 | 0.00 | 0.00 | 73 | 1011.4 |
| 20260505163204 | 58 | 354 | 0.9 | 7.0 | 0.00 | 0.00 | 0.00 | 73 | 1011.5 |
| 20260505161703 | 59 | 309 | 1.7 | 7.0 | 0.00 | 0.00 | 0.00 | 72 | 1011.5 |
| 20260505161204 | 59 | 303 | 1.7 | 7.8 | 0.00 | 0.00 | 0.00 | 72 | 1011.5 |
| 20260505160704 | 59 | 300 | 2.6 | 5.2 | 0.00 | 0.00 | 0.00 | 71 | 1011.6 |
| 20260505160203 | 59 | 317 | 2.6 | 7.0 | 0.00 | 0.00 | 0.00 | 71 | 1011.5 |
| 20260505153204 | 60 | 63 | 2.6 | 7.8 | 0.00 | 0.00 | 0.00 | 68 | 1011.5 |
| 20260505151703 | 60 | 342 | 0.9 | 4.3 | 0.00 | 0.00 | 0.00 | 68 | 1011.4 |
| 20260505151204 | 60 | 303 | 0.0 | 5.2 | 0.00 | 0.00 | 0.00 | 68 | 1011.4 |
| 20260505150703 | 60 | 303 | 2.6 | 7.0 | 0.00 | 0.00 | 0.00 | 67 | 1011.5 |
| 20260505150203 | 60 | 13 | 2.6 | 7.0 | 0.00 | 0.00 | 0.00 | 68 | 1011.5 |
| 20260505140204 | 59 | 36 | 0.9 | 7.8 | 0.00 | 0.00 | 0.00 | 69 | 1011.7 |
| 20260505124704 | 61 | 2 | 4.3 | 7.8 | 0.00 | 0.00 | 0.00 | 65 | 1012.1 |
| 20260505124203 | 61 | 291 | 5.2 | 7.8 | 0.00 | 0.00 | 0.00 | 68 | 1012.0 |
| 20260505123704 | 60 | 293 | 5.2 | 10.4 | 0.00 | 0.00 | 0.00 | 69 | 1012.1 |
| 20260505123203 | 60 | 317 | 4.3 | 10.4 | 0.00 | 0.00 | 0.00 | 69 | 1012.1 |
| 20260505121703 | 62 | 299 | 1.7 | 5.2 | 0.00 | 0.00 | 0.00 | 67 | 1012.0 |
| 20260505121204 | 61 | 302 | 6.1 | 10.4 | 0.00 | 0.00 | 0.00 | 69 | 1012.0 |
| 20260505120703 | 60 | 40 | 1.7 | 4.3 | 0.00 | 0.00 | 0.00 | 70 | 1012.0 |
| 20260505120204 | 59 | 63 | 0.9 | 8.7 | 0.00 | 0.00 | 0.00 | 71 | 1012.1 |
| 20260505114704 | 60 | 331 | 2.6 | 7.0 | 0.00 | 0.00 | 0.00 | 74 | 1012.2 |
| 20260505114203 | 58 | 2 | 2.6 | 7.0 | 0.00 | 0.00 | 0.00 | 75 | 1012.2 |
| 20260505113703 | 58 | 303 | 3.5 | 7.0 | 0.00 | 0.00 | 0.00 | 75 | 1012.3 |
| 20260505111705 | 57 | 58 | 2.6 | 7.0 | 0.00 | 0.00 | 0.00 | 74 | 1012.5 |
| 20260505111204 | 58 | 50 | 1.7 | 6.1 | 0.00 | 0.00 | 0.00 | 76 | 1012.5 |
| 20260505110703 | 57 | 300 | 3.5 | 7.0 | 0.00 | 0.00 | 0.00 | 77 | 1012.6 |
| 20260505110203 | 56 | 298 | 1.7 | 8.7 | 0.00 | 0.00 | 0.00 | 79 | 1012.6 |
| 20260505101704 | 55 | 29 | 1.7 | 4.3 | 0.00 | 0.00 | 0.00 | 81 | 1012.9 |
| 20260505101203 | 55 | 53 | 2.6 | 6.1 | 0.00 | 0.00 | 0.00 | 80 | 1012.9 |
| 20260505100704 | 55 | 34 | 1.7 | 5.2 | 0.00 | 0.00 | 0.00 | 80 | 1012.9 |
| 20260505100206 | 55 | 348 | 1.7 | 10.4 | 0.00 | 0.00 | 0.00 | 79 | 1012.9 |
| 20260505094703 | 55 | 39 | 2.6 | 7.8 | 0.00 | 0.00 | 0.00 | 83 | 1012.8 |
| 20260505093704 | 54 | 52 | 5.2 | 8.7 | 0.00 | 0.00 | 0.00 | 83 | 1012.9 |
| 20260505093204 | 54 | 66 | 2.6 | 7.0 | 0.00 | 0.00 | 0.00 | 83 | 1013.0 |
| 20260505091204 | 54 | 313 | 1.7 | 7.8 | 0.00 | 0.00 | 0.00 | 84 | 1013.0 |
| 20260505090703 | 54 | 301 | 2.6 | 7.0 | 0.00 | 0.00 | 0.00 | 85 | 1013.1 |
| 20260505090204 | 54 | 302 | 2.6 | 7.0 | 0.00 | 0.00 | 0.00 | 85 | 1013.1 |
| 20260505084703 | 54 | 300 | 0.9 | 4.3 | 0.00 | 0.00 | 0.00 | 86 | 1013.3 |
| 20260505084203 | 53 | 19 | 1.7 | 5.2 | 0.00 | 0.00 | 0.00 | 87 | 1013.3 |
| 20260505083704 | 53 | 64 | 2.6 | 6.1 | 0.00 | 0.00 | 0.00 | 87 | 1013.2 |
| 20260505083205 | 53 | 297 | 0.9 | 7.0 | 0.00 | 0.00 | 0.00 | 87 | 1013.3 |
| 20260505081203 | 53 | 310 | 2.6 | 4.3 | 0.00 | 0.00 | 0.00 | 88 | 1013.3 |
| 20260505080703 | 53 | 311 | 0.9 | 4.3 | 0.00 | 0.00 | 0.00 | 88 | 1013.2 |
| 20260505080204 | 52 | 41 | 0.9 | 7.8 | 0.00 | 0.00 | 0.00 | 88 | 1013.3 |
| 20260505074703 | 52 | 320 | 1.7 | 7.0 | 0.00 | 0.00 | 0.00 | 88 | 1013.1 |
| 20260505074204 | 52 | 358 | 1.7 | 5.2 | 0.00 | 0.00 | 0.00 | 88 | 1013.2 |
| 20260505073704 | 53 | 299 | 2.6 | 7.0 | 0.00 | 0.00 | 0.00 | 88 | 1013.2 |
| 20260505073203 | 53 | 345 | 1.7 | 7.0 | 0.00 | 0.00 | 0.00 | 88 | 1013.2 |
| 20260505071704 | 53 | 330 | 0.9 | 4.3 | 0.00 | 0.00 | 0.00 | 88 | 1013.3 |
| 20260505070206 | 53 | 29 | 1.7 | 6.1 | 0.00 | 0.00 | 0.00 | 89 | 1013.3 |
| 20260505064704 | 52 | 9 | 1.7 | 5.2 | 0.00 | 0.00 | 0.00 | 91 | 1013.4 |
| 20260505064203 | 52 | 320 | 1.7 | 2.6 | 0.00 | 0.00 | 0.00 | 91 | 1013.4 |
| 20260505063704 | 52 | 309 | 2.6 | 5.2 | 0.00 | 0.00 | 0.00 | 91 | 1013.3 |
| 20260505063204 | 52 | 342 | 0.9 | 5.2 | 0.00 | 0.00 | 0.00 | 92 | 1013.4 |
| 20260505061704 | 51 | 317 | 0.9 | 1.7 | 0.00 | 0.00 | 0.00 | 92 | 1013.2 |
| 20260505061204 | 51 | 320 | 0.9 | 2.6 | 0.00 | 0.00 | 0.00 | 91 | 1013.2 |
| 20260505060703 | 51 | 10 | 1.7 | 4.3 | 0.00 | 0.00 | 0.00 | 92 | 1013.3 |
| 20260505060204 | 51 | 297 | 0.9 | 5.2 | 0.00 | 0.00 | 0.00 | 92 | 1013.3 |
| 20260505054203 | 51 | 319 | 1.7 | 2.6 | 0.00 | 0.00 | 0.00 | 92 | 1013.3 |
| 20260505053706 | 51 | 19 | 0.9 | 2.6 | 0.00 | 0.00 | 0.00 | 92 | 1013.4 |
| 20260505053203 | 51 | 313 | 0.9 | 2.6 | 0.00 | 0.00 | 0.00 | 92 | 1013.4 |